Lid_Strength_Index
13 15 17 14 13 13 16 17 18 17 14 14 13 12 11 9 11 12 11 11 9 6 4 3 3 3 3 2 1 1 1 1 1 2 2 2 2 2 1 1 1 1 1 2
17 19 15 13 12 13 13 17 18 16 15 15 15 14 12 10 10 10 11 11 11 10 5 4 3 3 3 3 2 1 1 1 1 1 1 1 1 1 1 1 0 1 1 1
18 17 14 15 15 15 15 15 16 17 15 15 16 16 14 12 10 9 9 10 10 10 9 6 4 3 3 3 3 2 1 1 1 1 1 2 1 2 2 1 0 0 0 0
17 15 15 16 17 14 17 12 13 14 17 20 16 21 17 13 12 11 9 10 9 9 9 9 7 4 3 3 3 3 2 1 1 1 1 2 2 2 1 1 1 1 2 1
15 14 14 16 16 14 16 12 13 13 14 17 17 19 19 14 14 12 10 9 10 8 9 9 9 7 4 3 2 2 2 2 1 1 1 1 2 1 2 2 2 1 1 1
13 11 11 13 12 13 13 14 15 13 14 19 19 18 20 17 15 13 11 9 9 9 9 9 8 7 6 4 3 2 3 3 2 2 2 1 2 2 2 2 2 2 2 2
14 13 12 11 14 12 13 17 22 21 20 23 16 17 19 15 15 13 12 11 8 8 8 10 9 9 8 6 5 5 4 5 3 3 3 3 2 2 2 3 3 3 3 5
19 20 13 11 13 16 14 16 20 24 22 21 15 19 19 14 13 12 13 13 10 11 11 11 10 9 9 7 6 6 6 7 7 7 7 6 6 6 7 7 6 7 7 7
15 17 11 10 11 12 16 16 14 16 17 19 18 17 15 14 14 13 13 13 12 13 12 11 11 11 10 9 8 7 8 8 9 9 9 9 9 9 10 10 10 10 10 9
14 16 11 10 8 10 13 12 17 16 22 22 18 19 18 16 14 13 12 12 12 11 11 12 12 13 12 11 10 9 9 9 9 10 11 11 12 12 12 12 12 11 11 11
12 13 14 12 13 13 12 14 15 14 16 20 21 19 16 15 14 13 12 11 11 11 11 12 12 13 13 12 12 12 11 12 11 11 12 12 13 13 13 13 13 13 13 12
12 14 16 16 11 9 10 12 12 17 18 16 16 18 13 14 14 13 12 12 12 12 12 12 13 13 12 13 14 13 14 13 13 13 13 14 14 14 14 14 14 14 13 13
15 18 23 19 16 10 13 12 11 12 13 16 18 19 13 13 13 13 13 13 13 13 13 13 14 14 14 13 12 13 14 14 14 13 14 14 15 15 15 15 15 14 14 14
8 15 18 22 20 18 16 13 11 13 16 15 15 15 14 13 13 13 13 13 13 14 14 14 14 15 15 15 14 14 14 15 15 15 15 16 16 16 15 16 16 15 15 14
12 19 18 15 14 14 15 15 14 14 13 16 14 14 13 12 12 12 12 13 13 14 14 15 15 15 15 15 16 16 16 16 16 16 17 17 16 16 16 16 15 15 15 15
13 19 18 17 14 13 14 14 14 13 12 13 13 14 12 11 12 13 13 13 13 13 14 14 15 15 16 16 16 16 16 17 17 17 17 17 17 17 16 16 16 15 15 15
13 17 20 25 14 15 20 15 13 13 12 12 15 12 11 13 12 12 13 13 13 14 14 15 15 15 16 16 16 16 17 17 17 17 17 17 16 17 17 16 16 16 16 16
12 15 16 23 22 24 15 11 15 13 12 12 11 11 11 10 10 11 11 12 14 14 15 15 15 15 16 16 16 16 16 17 17 17 17 17 17 17 17 17 17 16 16 17
11 12 20 26 30 19 16 14 15 15 15 11 12 11 11 10 11 12 12 12 12 13 14 14 15 15 16 16 16 16 17 17 17 18 18 18 17 17 17 17 17 17 17 17
13 11 17 28 28 29 17 15 11 11 17 12 12 11 12 10 13 12 12 12 13 13 13 14 15 16 16 16 16 17 18 18 18 18 17 18 18 17 18 18 18 17 17 17
18 17 19 24 25 22 15 14 12 19 16 13 12 11 10 10 10 11 11 12 12 12 13 14 14 15 15 16 16 17 17 17 17 17 18 18 18 18 18 18 18 18 18 18
22 24 28 28 30 25 14 14 16 14 13 12 12 11 10 12 11 11 11 12 12 14 14 14 15 15 15 15 16 16 17 17 18 18 19 19 19 18 17 18 17 18 18 18
22 19 22 21 20 15 15 14 14 13 13 13 12 12 11 12 12 12 12 13 13 13 14 14 14 15 16 16 16 16 17 17 19 19 21 20 19 18 17 18 18 18 19 19
19 17 20 19 16 16 15 15 14 13 13 13 12 13 12 13 13 13 13 13 14 14 14 15 15 15 16 16 16 16 17 17 20 20 20 20 20 19 19 19 18 19 19 19
18 18 21 20 16 15 15 15 14 13 13 14 13 12 12 12 13 12 13 13 13 14 14 15 15 15 15 16 16 18 18 19 19 20 21 20 20 21 20 20 20 19 19 19
18 18 19 19 16 16 16 15 14 14 14 13 13 13 13 12 12 12 13 14 14 14 16 16 15 16 16 17 18 19 19 19 20 21 21 22 22 22 22 22 22 19 18 17